GFSMA_sfc_temp_015.txt.gz
Temp
66 66 66 66 65 66 66 66 66 66 66 67 67 67 67 66 66 67 67 65 67 68 70 71 72 72 72 73 74 74 74 77 78 78 78 78 77 76 75 75 74 75 73
66 65 65 64 65 66 66 66 65 65 65 67 65 65 65 65 66 65 66 65 64 65 67 68 69 70 71 72 72 73 73 72 77 77 77 77 76 76 75 74 74 74 73
66 65 65 65 65 66 66 66 65 66 65 65 65 65 64 64 64 65 65 65 65 62 63 65 66 67 68 70 71 71 71 71 72 75 77 77 76 76 75 74 73 74 74
65 64 64 64 64 64 64 64 64 63 63 64 65 65 64 65 64 65 64 64 64 64 63 62 63 64 66 67 69 69 69 70 70 70 75 76 76 75 75 75 74 74 73
63 64 64 63 63 63 64 64 62 63 62 62 63 64 64 64 64 65 64 63 62 62 63 61 60 61 63 65 66 67 68 69 70 69 68 70 75 75 75 75 74 74 73
62 63 62 62 63 62 62 62 62 62 61 60 62 62 63 63 63 63 62 65 64 62 63 62 62 63 61 62 63 65 66 67 68 69 67 69 71 75 75 75 74 74 74
62 62 62 62 61 62 61 61 61 60 60 60 59 60 61 62 62 62 64 64 63 63 63 62 63 62 63 61 61 62 64 65 66 68 67 67 69 72 76 75 74 74 74
62 62 62 61 61 60 59 59 59 58 59 59 57 55 53 58 61 63 63 62 62 62 62 63 63 63 62 62 61 59 59 62 64 66 68 67 66 69 74 75 74 74 74
61 63 62 61 61 60 59 58 58 57 57 58 57 57 53 51 53 59 61 61 61 61 62 62 63 63 63 63 61 60 58 60 62 64 66 66 66 66 68 75 74 74 74
61 61 61 61 61 60 59 58 58 58 57 56 57 57 56 55 51 49 58 59 61 60 61 61 62 62 63 62 60 58 58 58 60 62 64 67 66 65 67 70 74 74 74
61 60 61 60 60 59 60 59 58 57 57 57 56 56 53 54 52 47 47 53 58 60 61 60 61 62 62 61 60 59 58 58 60 61 62 64 66 65 65 66 74 74 74
58 60 59 60 60 59 58 58 58 57 57 56 56 55 53 52 53 51 49 52 52 56 60 61 60 60 61 61 60 58 59 59 59 60 60 62 64 65 64 66 71 74 74
56 57 58 58 58 57 58 57 57 57 56 55 56 55 55 53 53 52 50 50 50 55 56 60 60 60 61 62 61 59 58 58 58 59 60 61 63 64 62 64 65 74 74
59 59 58 59 59 58 58 57 56 56 56 55 54 54 54 55 55 53 52 50 47 50 54 55 61 61 61 61 61 58 60 58 58 58 59 61 61 63 62 63 64 71 73
58 57 58 57 58 58 58 57 56 56 56 56 55 55 54 55 55 55 53 52 48 43 47 55 55 61 60 61 60 60 58 57 58 58 58 59 60 62 62 63 63 70 72
59 57 56 57 57 57 57 56 55 56 54 55 55 53 54 55 54 54 52 52 51 47 44 53 55 58 59 60 60 58 57 57 57 57 58 58 59 61 62 62 61 69 70
58 57 56 56 56 56 56 56 55 55 53 54 54 52 52 54 53 53 52 51 50 49 45 51 55 57 57 57 57 55 54 56 58 57 57 58 59 60 61 60 60 69 69
57 57 57 56 56 56 56 55 54 56 54 52 53 53 52 54 53 53 52 51 51 52 48 46 52 53 54 53 54 51 52 55 56 56 57 57 58 59 60 58 62 67 67
57 57 56 56 55 55 55 55 54 54 54 53 53 52 52 52 51 53 52 52 51 52 51 47 46 51 53 55 50 51 51 52 55 56 57 58 59 59 60 59 63 64 64
57 57 56 56 55 55 55 54 53 53 53 53 53 53 53 52 52 52 52 51 51 50 49 47 48 50 48 49 49 47 47 51 50 55 58 58 59 60 59 58 63 62 62
58 57 56 55 55 54 55 54 53 53 53 53 53 54 53 53 54 55 54 53 51 48 48 47 48 46 45 46 46 49 49 51 54 55 55 58 57 56 56 62 62 61 61
56 55 55 55 53 55 54 54 54 54 54 52 52 54 53 52 52 53 54 54 53 48 45 48 45 44 46 47 48 49 52 49 47 56 54 55 56 53 58 67 63 61 61
55 54 55 54 53 54 55 56 56 57 54 54 52 51 51 54 52 52 52 53 52 53 54 50 46 46 46 48 49 49 50 51 53 58 55 52 54 54 64 64 61 60 60
53 53 53 53 53 53 54 56 56 56 54 53 51 51 50 51 51 51 51 50 51 51 52 52 50 49 50 51 50 51 52 55 56 57 56 51 58 60 62 61 59 59 59
52 52 53 51 52 53 54 55 55 54 52 51 52 51 51 50 52 54 51 48 50 53 56 55 55 54 54 54 55 53 52 51 51 57 57 57 58 57 58 57 58 58 57
51 52 51 53 52 53 52 54 54 53 51 51 52 51 51 52 53 54 51 51 49 51 48 51 50 50 51 52 56 59 57 52 52 57 58 55 57 56 50 56 57 59 60

GFSMA_sfc_temp_021.txt.gz
Temp
81 81 80 79 78 78 79 78 78 78 78 78 78 79 79 78 78 77 71 66 67 69 70 70 71 71 72 72 73 73 73 73 74 75 77 77 77 77 76 76 75 74 74
82 80 79 78 78 79 79 79 78 77 77 78 76 76 76 77 76 75 75 67 66 66 67 68 69 69 70 71 71 71 71 72 72 72 73 74 77 77 77 75 75 75 74
82 80 79 78 79 79 79 78 78 77 75 76 75 76 75 75 75 75 74 73 69 65 65 66 66 67 68 69 69 69 70 70 71 71 71 71 73 76 77 76 75 75 75
81 80 78 77 78 77 75 75 74 73 74 74 75 75 75 74 74 74 72 71 70 70 69 66 65 65 66 67 68 68 68 69 69 70 70 71 71 72 74 76 75 75 75
79 78 77 77 76 74 74 73 73 73 72 72 72 74 75 74 74 75 73 71 70 69 68 68 67 66 66 66 66 67 67 68 68 68 69 70 71 70 71 73 75 75 75
77 77 76 75 75 72 72 71 72 72 71 71 72 73 74 73 72 72 73 74 72 70 68 68 67 69 68 67 67 66 66 67 67 67 68 69 70 71 70 70 71 75 75
75 75 74 74 73 71 71 71 71 69 68 70 67 70 71 73 73 72 72 73 72 71 70 69 69 69 69 70 69 67 66 66 66 66 67 68 69 70 71 70 69 70 74
75 74 73 72 71 70 70 69 68 67 68 69 66 65 63 67 70 72 72 71 71 71 70 71 71 70 68 68 68 67 65 65 65 65 66 66 68 69 70 70 69 69 70
74 74 73 73 71 70 68 67 67 65 64 67 68 65 61 61 64 70 70 70 69 69 70 70 70 69 69 69 68 67 65 65 64 64 64 65 66 68 68 70 70 69 69
75 73 74 73 72 71 69 68 69 66 65 64 65 67 67 65 59 58 68 68 70 69 68 68 69 69 69 68 67 66 66 65 64 63 64 64 65 66 67 68 69 70 68
74 72 73 72 71 70 70 69 68 66 66 65 64 64 63 63 64 58 55 60 66 68 69 68 68 68 68 67 66 66 66 65 63 63 63 63 64 65 66 67 68 68 68
71 72 72 72 71 70 69 68 68 67 66 66 66 64 62 60 60 60 57 59 59 62 66 67 67 67 66 66 67 65 65 65 64 63 63 63 63 64 65 66 67 68 69
68 69 71 70 69 68 68 68 66 66 66 64 64 64 64 62 62 61 58 57 56 60 62 65 66 66 68 67 66 65 65 65 64 63 63 63 62 63 63 64 66 67 68
69 70 70 70 70 69 68 67 65 65 65 64 63 63 63 63 63 61 58 56 52 55 59 59 65 66 66 67 66 65 64 64 64 64 64 63 62 62 61 62 63 65 66
72 70 69 68 70 69 67 66 65 64 64 64 63 62 62 63 63 62 61 59 55 49 51 58 58 64 65 65 65 65 65 64 64 64 63 63 62 61 61 61 62 63 65
71 69 68 68 68 68 67 65 64 65 64 63 64 63 62 63 62 62 60 60 58 54 49 57 58 61 64 65 64 64 64 63 63 63 63 61 61 61 61 61 61 62 63
72 69 68 67 67 67 67 65 64 64 63 63 63 62 61 62 60 60 60 59 57 57 51 56 59 61 61 61 62 62 63 62 62 63 62 61 61 60 59 59 59 60 61
72 69 68 67 67 66 66 65 64 65 63 61 62 61 60 62 59 59 59 57 57 58 55 51 56 57 57 59 60 59 59 62 60 60 60 60 60 59 59 59 59 60 60
72 70 68 66 66 65 65 66 65 64 64 63 62 61 61 61 59 59 59 58 58 58 57 54 53 56 56 58 57 58 58 59 60 60 59 59 59 59 59 58 58 58 59
72 69 68 67 66 66 65 65 65 64 64 64 64 62 62 60 59 58 58 57 57 55 55 53 52 52 54 55 55 53 53 56 54 56 57 58 59 59 59 59 58 58 57
72 70 69 67 66 65 66 64 63 63 63 62 62 62 61 61 60 59 56 55 54 53 52 50 50 50 50 51 51 51 48 49 51 53 53 54 56 57 56 59 58 57 57
71 69 68 66 64 66 63 61 62 62 62 61 60 61 62 60 59 58 58 57 56 52 50 49 49 48 50 52 51 48 46 45 43 54 50 50 56 55 56 56 58 58 57
69 68 67 66 64 64 62 61 60 62 61 61 60 60 60 62 59 58 58 58 57 57 57 54 51 51 51 52 49 47 46 46 45 50 49 47 53 53 56 56 57 57 57
67 67 66 66 63 63 60 60 59 60 61 60 60 60 59 58 58 57 55 54 55 56 57 59 57 55 54 52 51 50 48 48 49 50 51 46 53 52 55 55 57 57 56
65 65 66 64 63 61 59 58 58 59 59 59 60 60 58 57 57 56 54 52 54 55 60 60 58 57 57 56 54 49 47 46 48 50 53 51 53 52 53 53 56 56 57
64 65 65 65 62 62 57 58 58 60 58 58 59 59 56 56 55 55 52 52 51 53 54 53 55 54 54 52 53 49 48 49 51 50 54 51 52 52 50 54 56 58 58

GFSMA_sfc_temp_024.txt.gz
Temp
66 66 64 64 63 64 64 63 63 64 64 65 65 65 63 63 63 62 57 68 68 69 70 71 71 72 72 72 72 72 72 73 73 74 74 76 77 77 76 76 75 75 74
66 65 65 64 63 64 64 64 63 62 62 62 64 65 63 62 63 63 58 59 68 68 68 69 69 70 70 71 71 71 71 71 72 72 72 72 73 76 77 76 75 75 74
67 66 64 63 63 64 65 64 63 62 62 65 61 62 64 62 63 62 62 57 61 67 67 67 67 67 68 69 69 69 69 70 70 71 71 71 71 72 74 76 76 75 75
68 65 64 63 63 63 62 61 60 59 59 59 58 60 60 62 62 62 62 60 59 61 64 67 66 66 66 67 68 68 68 69 69 69 70 70 71 71 71 73 75 75 75
68 64 63 62 63 61 60 61 59 59 57 57 60 60 60 59 60 66 60 61 59 58 58 65 68 67 66 67 67 67 67 67 68 68 69 69 70 71 71 71 72 73 75
66 64 62 62 61 59 58 58 58 58 57 57 65 62 58 59 59 58 59 62 59 59 58 59 56 59 67 69 69 68 67 67 67 67 67 68 69 70 71 71 70 71 72
65 63 60 61 59 58 57 59 58 57 55 56 54 54 56 59 57 58 59 59 59 59 57 58 56 56 59 70 69 69 69 68 67 66 67 67 68 69 70 71 71 70 70
65 64 60 59 59 57 58 57 57 54 55 55 52 50 48 52 55 59 57 60 58 58 59 61 58 58 57 56 60 68 67 66 66 66 66 66 67 68 68 69 70 71 71
66 66 62 60 59 57 55 55 55 54 51 53 55 51 47 46 49 54 56 56 56 55 56 57 59 60 58 56 60 61 66 66 67 66 65 66 66 67 67 68 69 70 71
66 65 64 61 61 57 56 56 58 54 53 50 52 58 52 51 46 46 52 53 56 57 55 55 55 57 57 56 62 65 66 67 66 65 65 65 65 66 66 67 68 68 69
66 66 65 63 61 60 57 57 56 55 53 51 50 50 50 50 50 46 43 48 52 54 54 54 54 55 57 56 55 59 66 66 65 65 65 65 65 65 66 67 67 68 68
65 65 66 64 62 61 58 58 56 55 53 53 52 51 49 48 47 46 44 45 46 49 52 53 52 53 55 55 61 65 66 66 65 65 65 65 65 65 65 66 66 67 68
63 64 64 63 62 60 57 56 55 54 54 52 52 51 51 50 51 49 46 44 44 47 49 51 53 53 58 54 55 63 64 66 65 65 65 64 65 65 64 64 64 65 67
64 65 64 64 63 59 58 56 53 53 54 52 52 51 50 51 51 50 47 45 41 43 45 47 51 52 53 54 57 64 57 64 65 65 65 65 64 64 64 64 63 63 64
66 64 64 63 63 61 59 55 54 53 53 52 51 51 50 50 51 50 49 48 44 38 40 44 46 51 52 53 56 56 55 61 64 64 64 64 64 64 64 64 62 62 63
65 64 62 63 61 61 59 56 53 53 52 51 52 51 50 50 50 50 49 48 47 43 40 45 47 49 52 58 57 57 55 62 63 63 63 62 63 63 63 62 62 61 61
66 63 63 62 61 60 60 57 55 54 53 51 52 51 51 51 49 49 48 47 46 45 42 45 48 50 49 50 52 52 54 52 54 61 62 62 61 61 61 61 61 61 61
67 65 63 62 62 61 60 58 56 57 54 51 51 51 51 56 49 49 47 47 46 47 44 44 45 47 47 49 50 51 54 58 55 60 62 61 61 60 60 60 60 60 60
68 66 63 61 61 60 59 58 58 56 54 52 51 51 51 51 48 47 47 47 47 51 46 44 45 45 46 48 50 49 51 53 56 59 61 61 60 59 59 59 58 58 58
68 65 62 61 61 60 60 59 58 54 54 53 53 52 52 51 49 48 49 47 48 45 44 43 43 44 46 47 48 47 48 51 51 57 59 59 59 59 59 59 59 58 57
67 66 62 61 60 60 61 58 57 55 52 51 52 54 52 55 60 56 51 46 45 43 42 41 43 44 47 45 45 47 46 49 51 52 52 53 53 54 54 57 58 58 57
63 64 62 60 59 62 62 61 58 54 53 52 50 51 53 59 58 60 59 58 53 43 42 41 46 46 47 47 48 49 47 45 43 54 49 48 53 51 54 53 56 58 57
61 62 62 60 58 58 63 62 60 53 51 50 50 50 53 58 55 51 57 58 56 57 57 50 48 46 47 46 47 47 47 46 46 50 49 46 51 49 53 55 56 57 57
59 60 61 59 57 57 62 62 61 51 50 50 50 50 49 50 51 51 48 47 47 48 50 53 50 48 49 51 51 50 48 47 48 49 50 44 49 48 51 52 56 57 57
54 60 60 58 56 56 61 61 58 50 50 49 51 51 50 49 56 57 48 45 45 47 56 57 56 56 56 57 56 49 46 45 44 46 51 48 49 48 49 50 52 56 56
50 60 59 59 58 54 60 60 56 51 47 49 49 50 56 51 57 56 46 44 42 44 45 47 48 50 53 51 54 50 47 44 45 47 51 48 49 49 47 51 52 54 54

GFSMA_sfc_temp_027.txt.gz
Temp
59 59 57 57 57 58 59 58 59 60 60 61 61 61 59 57 56 57 57 70 70 70 71 71 72 72 72 72 72 72 72 72 73 73 73 74 76 76 76 76 75 74 74
61 59 58 59 58 59 59 59 59 58 59 59 61 62 59 58 57 56 57 59 69 69 69 69 70 70 71 71 70 70 70 71 71 72 72 72 72 73 75 76 75 75 75
62 60 59 58 58 59 60 59 58 58 57 59 57 59 60 59 59 56 57 56 61 68 68 68 68 68 69 69 69 69 69 69 70 70 70 71 72 72 72 73 75 75 75
63 60 59 58 59 58 58 57 56 55 55 55 54 55 57 58 59 57 57 56 55 59 64 67 67 66 67 68 68 68 68 68 68 69 69 69 70 71 72 72 72 74 75
64 60 59 58 58 57 56 57 55 55 54 54 56 55 54 55 57 61 57 57 55 55 55 64 68 67 67 68 68 68 67 67 68 67 68 68 69 70 70 72 71 71 72
63 60 58 58 57 55 55 54 55 54 54 54 62 59 53 54 54 54 55 59 55 56 55 56 55 57 68 68 69 69 68 67 68 67 67 67 68 69 70 70 71 71 71
63 60 57 57 56 57 55 55 53 54 52 52 52 51 51 52 53 54 54 54 55 56 54 55 53 54 56 69 69 70 70 69 68 66 66 67 67 68 69 69 69 71 71
64 61 59 57 56 54 54 54 53 50 51 51 49 46 47 50 50 54 52 56 54 54 55 57 54 54 54 54 57 67 68 68 67 67 67 66 66 67 68 68 69 69 70
64 65 60 59 57 56 56 52 52 52 49 49 51 49 44 45 45 49 51 52 53 53 53 54 56 57 55 53 59 61 66 66 67 67 66 66 66 66 67 67 68 68 69
65 65 63 60 59 57 54 56 55 51 50 49 49 54 48 48 45 45 48 49 51 54 52 51 53 55 55 53 59 61 65 67 67 67 66 67 66 66 66 67 67 68 68
64 65 63 61 60 57 59 54 53 52 50 49 48 47 46 46 45 43 42 46 49 49 51 51 51 51 53 53 53 57 65 66 66 66 66 66 66 66 66 66 67 68 68
61 63 63 63 62 60 56 56 55 52 51 49 49 48 47 46 45 43 41 42 44 47 49 50 50 50 51 52 58 63 65 66 66 66 66 66 66 66 66 66 66 67 66
62 59 63 61 59 60 59 57 54 54 52 52 49 48 48 48 47 45 44 42 43 44 47 47 50 50 54 50 52 61 62 65 65 66 65 65 65 65 65 66 66 66 66
63 65 62 63 63 60 59 57 56 55 53 51 50 48 47 48 48 47 45 43 40 40 42 45 47 49 49 50 54 63 55 63 64 65 65 65 65 65 65 65 65 65 65
64 63 62 62 62 59 59 58 56 55 55 52 50 49 48 47 47 47 46 45 43 37 37 42 44 47 49 50 53 53 52 59 63 63 63 63 64 64 64 65 65 65 64
61 63 62 62 61 60 59 57 56 55 53 50 51 49 47 47 47 46 46 45 44 42 38 42 44 46 49 55 54 54 52 59 60 62 62 61 62 63 63 63 63 63 62
62 64 63 61 60 59 58 57 56 54 54 51 50 51 48 48 46 46 45 44 44 42 39 42 44 46 46 47 50 49 50 49 49 59 61 61 61 61 62 62 62 61 62
63 64 62 62 61 61 59 58 55 56 54 51 50 49 50 53 46 46 45 45 44 44 42 41 41 44 45 46 46 45 51 55 52 58 60 61 61 61 61 61 60 60 60
60 63 64 62 62 61 60 57 57 56 55 54 51 51 50 48 45 44 45 44 44 48 43 41 40 42 43 43 45 45 45 49 53 57 59 60 60 60 61 60 59 59 59
57 59 58 63 62 62 60 57 56 55 53 53 53 51 50 49 47 46 46 45 45 43 42 41 40 40 41 44 42 44 44 47 48 54 57 59 59 59 60 59 59 58 57
55 56 54 59 62 61 60 56 56 53 52 51 51 52 50 52 57 51 48 44 43 42 41 40 40 40 42 42 40 45 44 46 48 49 49 51 53 53 54 57 57 57 57
53 52 51 55 59 62 61 59 56 53 53 51 50 49 50 58 58 61 60 56 49 43 41 39 41 41 42 44 45 45 42 42 42 53 50 49 53 52 53 53 56 56 56
50 48 49 53 58 60 62 61 59 55 52 52 50 49 51 56 55 51 59 60 57 57 56 45 41 42 44 45 43 43 44 45 45 50 49 46 51 49 52 54 56 56 56
48 47 48 50 59 59 62 61 59 53 51 49 49 48 48 48 48 48 47 46 46 46 47 49 46 45 44 48 48 49 48 48 48 49 50 44 49 48 51 52 55 56 56
48 47 48 49 57 57 61 61 57 52 49 48 49 48 47 46 55 56 47 44 43 44 53 55 56 56 55 55 55 49 46 44 44 46 49 46 48 48 49 48 50 55 55
49 49 48 49 57 58 60 61 54 53 48 48 47 48 54 49 58 57 45 42 40 41 43 43 45 47 49 48 53 50 47 43 44 43 48 47 48 48 46 49 51 52 53

GFSMA_sfc_temp_030.txt.gz
Temp
57 56 55 55 54 54 55 55 55 57 57 58 58 57 55 54 55 57 56 70 71 71 71 72 72 72 72 72 72 72 72 72 73 73 73 73 74 76 76 76 75 74 74
60 57 56 56 55 54 55 55 56 56 56 56 58 58 55 53 54 55 56 59 70 70 70 70 70 71 71 71 70 70 70 71 71 71 71 72 72 72 74 75 75 75 74
62 60 57 55 55 55 57 55 55 54 54 56 55 56 56 54 54 54 55 55 60 69 68 68 68 69 69 69 69 69 69 69 69 70 70 70 71 71 72 72 74 75 75
64 60 58 57 56 56 55 54 53 53 53 53 52 54 54 55 54 54 54 54 55 58 65 67 68 67 68 68 68 68 68 68 68 68 69 69 70 70 71 72 72 72 74
64 62 60 59 56 55 54 54 53 52 51 51 53 52 52 52 54 58 53 54 54 54 54 65 67 67 67 68 68 68 67 67 67 67 67 68 68 69 70 70 71 72 72
64 63 59 58 56 54 53 52 53 51 51 52 59 57 50 51 51 51 52 56 53 54 53 54 54 56 68 68 70 70 68 67 68 67 67 67 67 68 69 69 70 71 71
64 62 59 58 56 56 56 53 52 52 50 49 50 50 49 49 49 50 51 51 53 54 52 53 52 52 55 69 69 70 70 70 69 67 67 66 67 67 68 68 69 69 70
62 63 61 60 58 54 53 52 52 48 49 49 48 44 46 49 48 50 49 52 51 52 53 54 52 53 52 52 56 66 68 69 69 68 67 66 66 67 67 68 68 68 69
65 66 61 61 58 58 57 55 52 51 49 47 48 48 42 44 43 46 48 49 50 49 50 52 53 53 52 51 57 60 66 67 68 68 68 67 66 67 67 67 67 68 68
62 64 64 63 61 58 57 56 55 51 49 48 47 51 46 46 44 45 46 47 48 50 49 49 51 53 52 51 57 59 64 66 67 68 68 67 67 67 67 67 67 67 68
61 65 65 62 62 61 60 58 54 50 50 48 47 44 44 43 42 43 42 45 46 47 48 50 50 50 51 51 50 55 64 66 66 67 66 67 67 67 67 67 67 67 67
57 59 62 63 62 61 61 57 58 56 54 49 47 47 46 45 43 42 40 41 43 46 47 48 48 49 49 49 56 61 63 65 66 66 66 66 66 67 67 67 67 67 67
58 56 58 61 62 62 60 59 56 56 55 53 52 51 46 47 45 44 43 40 41 42 44 46 47 47 52 48 50 59 61 64 65 65 66 66 66 66 66 66 66 67 67
57 60 61 60 63 64 62 61 56 56 55 55 50 47 50 47 46 46 44 41 38 39 40 44 45 46 47 49 52 61 54 61 63 64 64 64 65 65 65 65 66 66 66
58 60 60 61 62 64 63 60 59 55 55 55 53 51 50 47 46 46 45 44 43 37 37 41 43 45 47 48 52 52 51 57 62 62 63 63 63 63 64 64 65 65 65
54 56 58 60 60 62 62 60 59 56 54 53 53 50 47 45 46 45 44 44 43 41 38 41 42 44 46 52 52 52 51 58 60 61 61 61 61 62 62 63 63 63 64
53 56 58 60 59 60 60 61 59 57 53 53 54 51 49 47 47 44 43 42 42 41 39 41 42 44 44 45 48 47 49 47 47 58 60 60 60 61 61 61 62 62 63
53 54 56 58 60 61 61 60 58 58 53 53 51 51 50 51 45 44 43 43 42 41 41 40 40 42 43 44 44 44 49 53 48 56 59 59 59 59 60 60 60 61 61
51 51 53 54 56 57 58 59 59 58 54 55 53 52 51 50 45 43 42 42 42 47 41 40 40 40 41 42 42 43 44 44 49 55 57 58 59 59 60 60 59 59 59
50 50 51 53 54 56 57 58 59 58 56 55 54 53 51 50 49 45 45 43 44 42 40 39 39 39 40 42 40 40 42 42 44 51 54 56 57 58 59 59 59 59 58
53 53 50 50 51 54 57 59 59 57 55 54 51 52 50 53 56 51 48 42 42 40 39 39 38 38 38 38 38 40 39 43 45 47 47 48 49 50 53 57 58 58 57
52 51 50 49 49 53 55 57 60 57 54 52 49 49 51 57 58 59 58 55 48 41 40 39 39 38 38 40 40 39 41 40 40 48 47 46 52 51 52 53 56 56 56
47 48 48 48 48 50 53 55 60 56 53 52 51 49 50 55 55 51 59 58 56 56 53 43 40 39 38 40 40 41 42 42 42 47 48 45 51 49 53 54 56 56 56
45 46 47 47 47 49 52 55 60 53 54 52 51 49 51 48 49 49 47 46 45 46 47 49 44 43 43 43 41 45 45 46 48 49 50 43 49 47 51 52 55 55 56
46 46 47 48 46 47 52 54 57 52 51 50 49 50 50 47 54 56 45 44 43 43 52 55 55 55 55 55 54 49 45 44 43 45 49 46 47 46 48 49 51 54 55
47 47 48 48 48 46 51 56 55 51 49 48 47 48 54 49 57 57 44 42 40 41 42 43 43 45 48 46 52 49 46 43 43 42 48 45 46 46 45 49 50 51 52

GFSMA_sfc_temp_033.txt.gz
Temp
59 57 56 55 54 53 54 54 53 55 55 56 55 55 54 54 55 56 56 71 71 72 72 72 72 72 72 72 72 72 72 72 72 72 73 73 74 76 76 75 75 74 74
59 58 56 55 54 53 54 53 54 53 53 53 55 55 53 52 53 54 55 58 70 70 70 70 71 71 71 71 70 70 70 71 71 71 71 72 72 71 73 74 75 75 74
59 59 57 55 55 54 55 53 53 52 52 54 52 53 53 52 53 53 54 55 60 69 69 69 69 69 69 69 69 68 69 69 69 69 70 70 71 71 71 72 73 73 74
60 58 58 58 56 54 53 53 52 51 51 50 50 52 51 51 52 52 53 53 54 57 65 68 68 68 68 68 68 68 67 68 68 68 68 69 69 70 70 71 72 72 72
61 60 59 59 55 54 52 53 51 52 50 50 51 51 50 50 51 56 51 53 52 54 53 64 68 68 68 69 68 68 67 67 67 67 67 67 68 68 69 70 70 71 72
63 62 57 57 56 53 52 51 52 49 50 51 57 55 49 49 49 49 50 54 51 53 52 53 52 56 68 69 69 69 69 67 68 67 66 67 67 67 68 69 69 70 70
63 59 59 58 55 56 57 54 51 51 48 48 49 48 48 49 47 48 48 49 50 52 50 51 51 51 53 68 69 70 71 70 70 68 67 67 67 67 67 68 68 68 69
61 59 59 58 59 55 54 52 52 48 49 47 48 44 46 48 46 48 46 49 49 50 51 52 51 51 51 51 55 65 68 69 70 69 68 68 67 67 67 67 67 68 68
63 62 61 60 58 60 59 56 55 52 49 46 48 49 41 43 42 44 45 46 48 47 48 50 51 52 51 50 56 58 65 67 69 69 69 68 67 67 67 67 67 67 68
59 62 61 60 61 57 59 59 59 58 51 49 45 49 44 45 44 45 45 45 46 48 47 47 50 51 51 50 55 58 62 66 67 68 68 69 68 68 67 67 67 67 67
56 57 57 57 60 57 59 61 59 56 58 50 48 43 42 42 41 42 43 44 44 45 46 47 48 48 50 49 49 53 62 65 66 67 67 67 68 68 67 67 67 67 67
53 54 56 54 56 57 57 58 59 57 58 58 52 46 45 44 42 42 39 40 42 45 44 45 46 47 48 48 54 60 62 64 65 66 66 67 67 67 67 67 67 68 67
50 52 53 53 53 55 57 58 58 58 59 56 54 53 48 48 45 44 43 40 41 42 43 44 45 46 50 47 49 58 61 63 64 65 65 66 66 66 66 67 67 67 67
50 52 52 53 54 56 57 58 58 58 60 57 58 55 50 50 45 45 44 42 39 38 38 43 43 44 45 47 51 60 53 61 63 63 64 64 64 65 65 65 66 66 66
53 52 53 52 53 56 57 57 58 57 58 58 57 54 54 51 48 46 45 45 45 39 39 42 43 43 45 46 50 50 49 56 61 62 62 63 63 63 63 64 65 65 65
51 51 51 52 52 55 56 56 56 58 57 55 57 54 51 46 50 46 43 44 44 43 41 41 40 42 44 51 51 51 50 57 59 61 61 61 61 61 62 62 63 63 63
50 50 51 51 52 53 54 54 56 58 58 57 56 53 51 50 49 47 43 42 42 42 41 41 40 42 42 44 47 46 48 46 46 57 59 59 60 60 60 61 61 62 62
52 52 51 51 51 52 52 53 54 57 57 55 55 53 52 50 49 47 46 44 44 41 41 40 40 40 41 42 43 44 48 51 47 54 58 59 59 59 59 59 60 60 60
51 51 52 50 51 51 50 51 53 55 56 56 56 53 53 49 48 46 46 44 42 46 40 40 39 39 40 40 41 42 42 43 48 54 57 58 58 59 59 59 59 59 59
51 51 50 50 51 51 52 52 52 53 55 55 55 54 55 50 50 46 47 45 43 41 38 38 38 38 39 40 39 39 40 41 43 50 53 55 56 57 58 58 58 58 58
51 50 49 48 49 50 52 51 51 51 53 53 54 54 54 54 57 52 49 44 42 40 38 37 37 37 37 37 37 39 38 41 43 44 45 46 47 48 49 54 56 57 57
47 48 46 48 48 51 54 55 54 51 53 53 50 51 54 56 57 58 58 54 49 43 39 38 37 38 38 38 39 38 40 36 37 43 43 44 47 46 47 49 55 56 56
45 45 44 45 46 47 53 54 55 51 52 53 52 50 53 55 56 54 59 58 56 56 51 44 39 39 38 39 39 38 38 39 40 45 44 42 47 46 50 53 55 55 56
42 43 44 44 45 47 53 54 54 51 51 52 54 52 52 53 51 51 51 47 46 48 50 51 43 42 41 43 41 44 43 43 44 46 48 42 48 47 51 53 55 55 56
42 42 44 44 44 45 52 53 52 48 49 49 49 51 52 51 54 56 48 44 42 43 53 55 53 53 55 55 53 47 43 41 40 44 49 45 46 46 48 49 51 54 54
42 44 45 46 48 46 50 52 51 48 47 46 46 47 54 52 57 57 46 43 40 40 42 42 43 45 48 44 52 47 44 40 42 42 47 44 45 46 44 48 49 51 52

GFSMA_sfc_temp_036.txt.gz
Temp
57 57 56 55 54 53 53 53 53 54 53 54 55 55 55 55 56 57 57 70 72 72 72 72 72 72 72 73 72 72 72 72 71 72 73 73 74 76 76 75 75 75 74
58 57 56 55 53 53 53 53 53 53 52 52 54 54 53 53 54 55 56 57 70 71 71 71 71 71 72 71 70 70 71 71 71 71 71 71 72 72 72 73 74 74 75
59 59 57 55 54 53 54 52 51 51 51 53 51 52 52 51 53 53 54 55 59 70 70 70 70 70 70 70 69 69 69 69 69 70 70 70 71 71 71 72 72 73 73
63 62 59 60 57 54 53 51 51 50 50 50 50 50 50 50 51 51 52 53 54 57 65 69 69 69 69 69 68 68 68 68 68 68 68 69 69 70 70 71 71 72 72
61 61 60 59 59 58 54 52 51 51 50 49 50 49 48 49 50 54 51 52 52 54 54 63 68 68 69 69 69 68 68 67 67 67 67 67 68 68 69 70 70 71 71
60 57 58 56 57 54 52 51 53 49 50 50 56 54 48 48 48 48 49 53 51 52 52 53 54 57 68 69 69 70 69 68 68 67 67 67 67 67 68 68 69 69 70
59 57 55 55 54 55 57 55 51 51 49 48 49 48 48 48 47 47 48 48 50 51 50 51 51 51 54 68 69 70 71 71 70 69 67 67 67 67 67 68 68 68 69
63 61 59 57 54 53 53 52 54 51 49 49 49 44 47 49 46 47 45 48 47 49 50 51 51 51 51 51 56 64 67 70 71 70 69 68 68 67 67 67 67 68 68
58 59 61 60 57 53 54 52 52 52 56 49 51 51 42 44 42 45 43 45 47 46 48 49 50 51 51 50 56 58 64 67 69 70 70 69 69 68 68 68 67 67 68
54 55 55 55 55 55 52 55 55 55 51 52 49 52 47 46 46 46 45 44 44 47 46 47 49 50 51 50 55 57 61 64 67 68 69 69 69 69 68 68 67 67 68
52 54 53 52 52 52 53 58 54 54 54 56 48 44 47 43 41 44 45 46 44 44 46 47 47 48 49 49 49 53 62 64 65 67 68 68 69 68 68 68 68 68 68
50 52 53 51 51 50 51 53 55 52 56 56 53 49 45 47 43 42 41 42 44 45 44 45 45 46 47 48 53 59 61 63 65 66 66 67 68 68 68 68 68 68 68
48 50 51 51 50 51 51 50 51 53 53 54 55 54 54 51 49 45 44 41 43 42 43 43 45 46 49 47 49 59 61 63 64 65 65 66 66 67 67 67 67 68 68
48 50 50 51 51 51 51 50 50 52 54 54 54 57 55 54 50 46 46 43 39 40 39 44 43 44 45 46 49 59 53 62 63 64 64 64 65 65 66 66 66 66 66
51 50 50 50 50 50 50 49 49 51 53 54 55 56 55 54 51 52 47 46 51 40 40 43 44 43 44 46 50 51 50 57 61 62 63 63 63 63 64 65 65 65 65
49 50 49 49 49 50 50 49 48 50 51 53 55 56 55 55 51 52 48 48 47 48 43 43 41 43 44 50 50 51 50 56 59 61 61 61 61 62 63 63 63 63 63
47 48 50 50 49 49 49 48 48 49 50 52 53 53 54 55 52 50 49 45 44 43 48 42 42 42 42 43 47 47 49 48 48 58 60 60 60 60 60 61 61 61 62
48 48 49 49 49 50 49 48 47 49 48 50 52 51 53 55 52 50 49 46 47 43 43 42 41 40 41 42 44 45 47 51 47 54 58 59 59 59 59 59 59 60 60
49 47 48 47 48 48 48 48 48 49 49 49 51 50 52 52 48 47 48 47 46 47 42 41 40 40 40 40 41 41 43 44 48 53 56 58 58 58 59 59 58 58 58
47 47 47 48 48 48 49 48 49 49 48 50 50 51 52 52 49 48 48 49 46 44 40 40 39 39 39 39 40 40 40 41 44 50 53 55 56 56 57 57 58 58 57
48 47 47 47 47 48 50 47 48 48 47 47 48 51 51 51 55 53 50 49 46 45 41 41 37 37 37 37 38 39 39 41 41 43 44 45 46 47 49 53 56 57 57
47 45 44 45 46 49 54 55 53 50 49 48 47 49 52 55 56 55 55 56 51 45 44 42 37 38 37 38 38 39 38 38 37 43 41 42 45 44 47 48 52 54 55
44 43 42 43 43 44 52 54 54 51 52 52 50 48 51 54 53 51 55 58 56 56 54 46 41 40 39 39 39 38 38 38 39 45 42 41 47 44 48 51 53 53 55
42 41 41 42 42 44 52 53 54 51 50 51 50 48 50 50 52 49 49 54 50 52 52 49 45 43 43 42 42 42 41 40 42 44 45 40 46 45 49 50 53 54 55
40 40 42 41 41 43 50 52 51 49 48 48 47 48 51 49 52 55 49 49 45 44 55 54 51 52 53 52 46 42 42 39 40 42 46 42 44 45 48 49 52 54 55
44 43 42 42 45 44 49 51 51 47 46 47 46 48 52 50 53 54 49 48 44 40 43 43 43 48 51 46 52 46 42 40 40 39 46 43 45 46 44 48 49 50 52

GFSMA_sfc_temp_042.txt.gz
Temp
84 85 84 84 83 83 83 83 82 82 82 83 84 84 85 85 85 84 83 71 72 74 75 74 74 74 73 74 73 73 73 72 73 74 76 76 77 77 76 76 76 75 75
82 78 82 83 83 83 83 83 83 82 82 83 82 82 83 84 83 82 81 79 71 72 74 74 73 73 73 72 72 72 72 72 72 72 72 73 73 74 74 74 74 75 75
69 72 75 79 82 84 82 82 83 82 81 81 81 82 81 82 81 81 80 79 78 70 72 73 73 73 73 72 71 70 71 71 71 71 71 71 71 72 72 73 73 74 75
69 67 67 68 71 73 77 79 78 77 78 79 80 81 81 81 81 81 80 78 78 79 72 71 72 72 73 72 71 70 70 70 70 70 70 70 70 71 71 72 72 72 73
77 77 73 68 68 68 74 75 77 76 77 77 78 80 80 80 79 81 79 77 76 76 77 72 70 70 72 72 72 71 70 69 69 69 69 68 69 69 70 70 71 71 72
76 75 75 75 72 66 65 71 74 77 75 77 78 78 79 79 78 78 79 79 77 74 74 75 73 73 70 71 72 72 71 70 69 69 68 68 68 68 69 69 69 70 70
75 74 75 74 73 70 67 65 67 71 72 75 73 74 76 79 79 77 78 79 77 75 75 74 74 75 74 70 70 71 72 71 70 70 69 68 68 68 68 68 68 69 69
74 74 73 73 73 71 70 67 61 63 67 70 68 69 68 74 76 79 78 77 78 77 75 75 75 75 75 74 71 69 70 72 72 71 70 69 69 68 68 68 68 68 69
74 73 73 73 73 72 70 69 68 60 55 59 66 61 63 66 75 77 77 77 76 76 76 76 75 75 75 75 71 68 65 68 70 72 72 71 70 70 69 68 69 68 68
73 73 73 72 72 72 71 70 71 68 62 57 63 65 66 70 69 68 73 74 75 75 74 74 75 75 75 75 71 69 66 66 67 70 71 71 71 71 70 69 69 68 68
72 72 72 71 70 70 71 70 69 70 68 64 58 61 59 59 67 64 67 70 72 73 75 75 74 75 75 74 73 70 66 66 66 68 69 70 71 71 70 70 70 69 69
70 71 70 70 70 69 68 69 69 68 68 68 66 61 59 60 63 59 60 69 72 74 74 74 74 74 74 73 71 68 65 65 65 66 67 68 70 70 70 70 70 70 69
67 68 69 68 68 68 68 67 67 67 67 66 66 66 62 59 61 62 62 61 67 74 72 74 74 74 73 73 72 66 65 65 65 66 66 67 68 68 69 69 69 69 69
66 67 68 67 68 68 68 67 66 66 67 66 65 66 66 65 62 63 62 58 60 67 70 69 72 73 73 73 71 65 69 64 65 65 66 66 66 67 67 68 68 68 68
65 65 65 65 66 66 66 66 65 66 66 67 66 66 66 67 67 65 65 61 62 53 64 71 69 73 73 73 71 71 68 64 64 64 64 65 65 66 66 67 67 67 67
63 63 63 63 64 65 66 65 64 66 65 66 66 65 65 66 67 67 65 59 62 60 55 70 74 73 72 72 70 70 70 65 63 64 63 63 64 64 65 65 65 65 65
63 62 62 62 63 63 65 64 64 65 64 64 65 64 64 65 64 66 66 64 61 60 52 63 70 74 71 69 70 67 70 69 67 63 63 62 62 62 63 63 63 63 63
62 62 61 61 62 63 63 63 62 64 63 62 63 63 62 65 63 64 64 63 61 62 53 52 64 69 67 68 69 65 67 69 68 64 63 62 61 61 61 61 61 61 61
60 61 60 59 60 61 61 62 63 62 63 63 63 63 62 62 62 63 63 63 62 62 58 51 53 60 66 68 66 66 66 66 68 64 62 62 61 61 60 60 59 59 59
57 58 59 58 58 59 60 61 61 61 61 61 62 63 62 61 61 61 62 62 62 57 56 50 48 50 62 63 63 62 60 63 64 67 63 63 62 60 60 60 59 58 57
56 56 56 57 57 57 58 55 56 59 60 60 61 62 61 61 60 60 61 61 60 57 53 52 46 50 56 59 57 61 61 62 63 65 63 64 63 62 62 60 59 58 57
52 53 52 53 53 56 56 56 56 58 59 59 58 60 61 59 59 58 58 59 59 54 53 51 47 51 56 59 58 61 61 59 57 66 61 61 64 61 63 64 61 59 58
50 50 52 51 49 53 55 54 54 55 57 59 59 59 59 61 59 59 58 58 58 59 57 56 48 52 52 59 60 60 59 59 59 63 61 57 63 59 63 64 58 57 57
47 48 50 51 50 52 53 53 53 54 55 57 58 58 58 58 59 58 54 52 56 59 56 55 52 54 55 60 59 62 60 61 63 64 60 54 61 59 63 64 58 56 56
43 46 48 49 49 51 53 52 52 53 52 55 57 57 57 56 57 56 52 51 53 56 60 57 56 54 55 56 59 59 59 57 56 57 60 56 58 58 61 61 63 56 55
43 43 43 47 48 48 51 52 52 52 52 54 56 56 54 54 55 54 52 51 50 54 56 56 52 53 54 54 59 62 60 56 56 56 61 55 56 56 50 59 61 62 59

GFSMA_sfc_temp_045.txt.gz
Temp
78 79 86 86 85 85 84 84 84 84 83 84 85 85 86 87 86 85 84 73 74 75 76 75 75 75 74 74 74 74 74 74 74 75 77 77 76 76 76 76 76 75 75
71 71 75 78 84 85 85 84 84 83 83 85 83 84 84 85 85 84 83 75 72 73 75 75 74 74 74 74 73 73 73 73 73 73 73 74 75 76 76 75 75 75 75
69 68 68 69 75 76 82 84 84 83 83 83 83 84 83 83 84 83 81 80 75 71 73 74 74 74 74 74 72 72 72 72 72 72 72 72 73 73 73 74 74 74 76
78 77 73 69 69 68 69 72 75 78 78 79 80 81 83 83 82 83 81 79 78 79 71 72 73 74 74 74 72 71 71 71 71 71 71 71 71 71 72 72 73 73 73
78 77 76 77 75 69 66 66 72 75 75 77 78 80 82 81 81 82 81 78 76 76 76 71 71 72 73 74 73 72 71 71 70 70 70 70 70 70 71 71 72 72 73
77 75 75 75 76 74 69 66 64 65 72 74 77 79 79 80 79 79 80 81 77 74 73 74 70 71 71 73 73 73 72 71 70 70 69 69 69 69 70 70 70 71 71
76 74 73 74 74 73 72 71 68 64 62 71 71 71 75 79 80 78 79 79 77 75 73 73 73 72 71 71 72 73 73 72 71 70 70 69 69 69 69 69 69 69 70
75 74 73 72 73 71 71 71 69 66 64 63 62 66 62 71 76 79 78 78 78 77 75 74 74 73 73 70 69 70 71 73 72 71 70 70 69 69 69 69 69 69 69
73 74 73 73 72 71 69 70 69 67 63 63 59 56 56 59 68 76 77 77 77 76 76 75 75 74 74 73 70 68 67 70 72 72 71 70 70 70 69 69 69 69 69
73 73 73 73 72 71 70 69 71 69 67 64 64 61 57 56 53 54 68 76 77 76 76 74 75 75 75 73 71 69 67 67 69 72 73 72 71 71 70 70 69 69 69
73 73 72 72 71 70 70 69 68 68 68 66 65 63 59 55 54 53 49 59 68 71 75 75 74 74 75 73 71 69 67 66 67 69 71 72 72 72 71 71 70 70 69
70 71 71 71 70 69 68 68 68 67 67 67 67 66 62 58 52 50 49 54 58 66 71 74 74 73 73 72 71 69 67 66 66 67 68 70 71 71 71 71 71 70 69
67 68 69 69 69 68 67 66 66 66 65 65 65 65 67 65 64 58 54 51 52 55 64 72 73 73 73 72 71 67 66 66 65 66 67 68 69 70 70 70 70 70 70
66 67 67 67 68 68 67 67 65 65 65 64 64 64 65 66 66 64 60 54 49 52 58 64 72 72 73 72 71 66 68 65 65 65 66 66 67 68 69 69 69 69 69
66 66 66 65 66 66 65 65 64 64 65 65 65 65 64 65 66 66 64 61 56 49 52 60 65 72 72 72 71 70 68 65 65 64 65 65 66 66 67 68 68 68 68
64 64 64 64 63 64 64 63 63 64 64 63 65 65 65 66 65 66 65 64 61 56 52 59 63 67 72 73 70 71 69 65 64 64 63 63 64 65 66 66 66 66 66
63 62 63 62 62 62 63 63 64 64 63 63 64 64 64 65 63 64 64 64 62 60 55 60 65 65 68 68 70 68 68 65 64 64 64 63 63 63 64 64 64 64 64
60 60 61 61 62 62 62 62 62 63 62 61 62 63 63 65 62 63 62 62 62 62 58 55 61 61 59 67 68 64 66 70 66 64 64 63 62 62 62 62 62 62 62
57 57 58 57 58 59 60 61 61 62 61 62 62 62 62 63 62 62 61 61 62 63 60 57 56 61 60 62 64 65 63 65 68 65 63 63 62 61 61 61 60 60 59
53 54 55 55 56 57 58 59 58 57 59 61 62 62 62 62 62 61 61 61 62 59 57 54 55 56 58 58 62 60 59 62 62 68 64 63 62 61 61 60 60 59 57
52 52 52 54 54 55 57 56 56 55 54 56 59 62 61 62 63 62 60 59 59 58 54 53 50 53 54 54 56 57 58 60 61 62 61 60 59 59 59 61 59 58 57
49 49 51 51 51 54 54 54 54 53 53 53 51 52 61 61 61 61 60 60 58 55 54 51 51 49 53 54 56 55 55 53 54 63 59 58 60 57 59 60 60 59 58
46 45 46 48 49 51 53 53 53 52 52 52 47 46 57 62 60 60 60 60 59 59 59 56 51 51 53 56 57 54 55 53 56 60 59 55 60 57 60 63 60 58 58
42 41 40 44 49 50 52 52 52 50 50 51 52 54 56 57 59 59 58 57 57 57 57 59 56 57 58 59 58 59 57 56 56 58 61 53 58 57 60 60 59 58 57
41 41 44 46 46 49 51 52 50 48 48 49 50 53 54 56 58 58 55 53 54 53 57 58 59 59 59 58 58 53 52 51 50 54 55 54 55 55 57 58 59 57 56
41 41 42 46 48 47 50 50 50 48 46 48 50 52 55 55 57 57 54 53 49 50 51 53 55 56 57 56 57 54 54 51 52 51 56 53 53 54 50 56 57 59 56

GFSMA_sfc_temp_048.txt.gz
Temp
68 69 69 70 73 72 71 70 69 70 69 70 70 71 70 71 72 72 67 74 75 76 76 76 76 76 75 74 75 75 75 76 76 77 77 77 77 76 76 76 75 75 75
67 67 68 68 68 68 70 71 70 70 69 69 70 71 70 69 70 71 67 68 73 74 75 76 76 76 75 75 74 74 74 74 74 74 77 77 76 76 76 75 75 75 75
65 65 64 65 68 68 67 68 68 68 68 70 68 69 69 70 69 70 69 65 67 72 73 75 76 75 75 75 74 73 73 73 73 73 73 74 75 75 75 75 74 75 75
66 64 63 63 65 65 64 65 65 65 65 66 66 67 68 67 69 69 68 67 65 67 70 72 74 75 75 75 74 73 73 72 72 73 72 72 73 73 73 74 74 74 74
67 63 62 62 63 62 62 62 64 63 63 65 65 67 69 66 66 73 67 67 65 64 63 70 72 73 74 75 75 73 72 72 72 72 72 72 72 72 72 73 73 73 73
65 62 61 61 62 60 59 60 60 61 63 62 65 70 67 70 65 64 66 69 65 65 62 62 65 67 72 74 75 74 73 72 71 71 71 71 71 71 71 71 72 72 73
64 61 59 60 60 58 59 60 58 58 57 58 60 62 65 69 66 64 65 65 64 65 62 61 61 60 65 72 73 74 74 73 72 71 71 70 70 70 71 71 71 71 71
63 64 60 59 59 57 58 58 57 55 55 57 54 57 55 62 68 69 65 69 66 63 65 65 61 61 60 63 62 71 72 73 73 72 71 71 70 70 70 70 70 70 70
62 62 61 60 59 58 55 56 56 55 52 54 55 53 52 52 53 64 67 68 66 62 64 65 66 64 61 61 64 66 68 71 73 72 71 71 71 70 70 70 70 70 70
62 62 62 60 59 57 56 55 60 55 52 51 53 56 53 54 50 49 57 59 63 66 62 61 65 65 65 60 64 65 67 68 70 72 72 72 71 71 70 70 70 69 69
60 61 63 63 58 57 57 57 55 54 54 52 51 51 51 50 51 51 49 55 60 62 60 60 62 61 64 62 59 64 67 67 68 70 72 72 72 71 71 70 70 70 69
56 58 61 58 58 57 56 56 56 54 53 53 53 52 50 50 47 46 48 51 52 56 59 64 64 62 61 60 65 66 67 67 67 68 69 71 72 72 72 72 71 70 70
55 55 56 56 57 58 56 55 54 53 53 53 52 55 53 53 53 51 49 48 48 53 54 59 60 64 67 64 63 66 66 67 66 67 67 68 70 71 71 71 71 71 70
57 56 59 57 59 60 60 58 57 54 53 53 55 57 57 54 53 56 53 48 43 46 50 52 57 62 62 64 65 66 64 67 66 66 66 67 67 69 70 70 70 70 70
58 59 57 57 58 59 58 57 55 53 55 56 56 53 55 58 55 53 54 56 50 44 47 53 51 58 63 63 66 67 62 65 66 65 65 66 66 67 68 69 69 69 69
55 55 55 56 56 57 56 55 55 56 55 56 58 55 56 60 58 55 55 55 54 51 46 50 53 54 57 63 65 66 65 63 65 65 64 64 65 66 66 67 67 67 67
54 54 54 54 54 55 56 56 56 56 54 56 58 56 56 58 54 53 55 56 54 53 48 48 52 54 56 55 60 63 62 61 62 65 64 63 63 64 65 65 65 65 65
53 53 53 52 52 52 53 54 54 55 54 55 57 57 56 60 55 53 55 51 56 53 47 45 48 50 52 54 55 57 60 63 58 64 64 63 62 62 63 63 63 63 63
50 50 51 51 50 50 51 52 53 55 54 55 56 55 57 56 55 56 54 50 52 56 49 46 46 49 50 53 53 56 57 57 62 63 64 63 62 62 62 62 61 61 60
50 50 50 50 49 49 50 51 52 52 52 53 55 54 54 55 54 56 52 48 49 47 49 50 49 48 47 49 52 53 53 55 54 63 63 62 62 62 62 61 61 59 58
49 49 49 49 48 48 50 49 51 51 50 50 52 53 52 54 56 58 55 49 51 47 48 48 44 44 44 45 46 52 52 53 52 53 53 53 56 56 57 61 59 59 57
48 47 46 46 44 47 48 50 50 48 49 48 48 49 50 54 52 54 56 55 50 45 44 47 47 47 44 45 46 50 51 48 47 52 49 48 54 51 53 53 59 58 57
46 44 44 43 42 44 47 48 50 48 47 47 46 46 49 52 52 50 51 58 58 60 58 48 48 47 45 47 49 46 51 50 49 51 53 49 49 49 50 57 57 58 58
42 42 42 42 42 43 47 50 51 48 46 46 47 47 46 45 47 47 46 48 49 50 51 54 50 47 48 49 49 54 54 53 53 54 55 50 48 47 50 53 58 58 58
41 41 41 41 41 43 47 49 49 46 45 45 47 48 48 48 49 50 49 48 47 47 57 58 58 58 58 58 55 49 49 49 49 52 54 49 50 47 48 48 51 57 56
42 42 41 42 43 41 47 49 49 45 43 43 45 46 51 49 52 53 46 45 43 42 45 46 46 51 55 53 58 51 52 49 47 44 49 52 47 50 46 47 49 50 52

GFSMA_sfc_temp_051.txt.gz
Temp
66 66 65 67 68 69 68 65 64 65 65 66 67 67 66 66 66 67 66 74 76 77 78 77 77 76 76 76 75 75 76 77 78 78 77 77 76 76 76 75 75 75 75
61 63 65 66 67 67 68 68 66 64 63 63 65 67 66 66 65 65 65 70 74 75 77 78 77 76 76 76 75 75 75 75 76 76 77 77 76 76 76 75 75 75 75
58 57 57 58 61 63 65 66 68 67 66 65 61 64 65 66 66 66 64 64 69 73 75 76 77 76 77 76 75 74 74 74 74 75 76 76 76 76 76 75 75 75 75
61 58 57 57 56 59 61 60 60 61 63 65 64 62 62 63 65 65 64 64 63 67 71 73 75 76 76 76 76 74 74 74 74 74 74 75 75 75 75 75 75 75 75
63 58 57 56 57 55 55 59 59 58 58 59 63 67 67 67 68 71 65 63 62 63 63 70 72 74 75 76 76 75 74 74 73 73 73 73 73 74 74 74 74 74 74
60 57 56 56 56 55 55 54 55 57 57 57 63 64 65 67 67 65 67 68 62 62 61 61 65 68 73 75 75 76 74 73 73 73 73 73 73 73 73 73 73 74 74
60 58 55 56 56 54 54 54 53 53 53 55 53 53 56 61 64 69 67 66 65 63 59 61 61 60 66 72 74 75 75 74 73 72 72 72 72 72 72 72 72 73 73
60 59 57 55 56 53 54 53 53 51 50 53 51 50 48 53 57 63 67 67 66 64 63 62 61 60 59 61 63 71 73 74 74 73 72 72 71 71 72 72 72 72 72
58 57 56 55 54 53 52 52 52 51 49 49 52 50 45 44 47 54 55 59 62 63 66 65 62 61 61 60 63 66 68 72 73 73 72 72 71 71 71 71 71 71 71
57 57 57 56 54 53 52 52 56 51 48 47 48 54 51 50 47 45 51 56 61 59 56 59 64 62 61 60 62 64 67 69 71 73 73 72 72 71 71 71 70 70 70
54 55 55 55 53 52 51 52 52 51 50 48 47 47 48 48 48 48 47 48 59 59 60 55 55 61 63 61 61 63 66 68 68 70 72 72 72 71 71 71 70 70 70
50 53 55 53 53 53 51 51 51 50 50 49 48 47 47 46 46 46 48 47 48 54 60 59 58 56 57 62 64 64 66 67 68 68 69 71 72 71 71 71 71 70 70
48 49 51 51 52 56 54 51 50 50 49 48 48 48 48 48 49 48 49 49 45 47 50 55 57 58 60 56 62 64 65 67 67 68 68 68 70 71 71 71 71 71 70
48 50 50 51 51 52 53 53 53 52 48 50 49 48 51 51 48 53 51 48 43 44 45 48 55 55 58 59 62 65 64 66 67 67 67 67 68 69 71 71 71 71 70
53 54 50 50 52 52 53 53 53 53 51 51 48 48 50 53 53 53 53 54 49 45 41 46 47 51 57 58 61 60 62 65 67 66 66 66 66 67 69 70 70 70 70
50 51 50 50 49 51 51 50 50 52 52 52 53 52 52 53 52 52 52 54 50 51 46 47 47 49 55 61 60 61 59 60 65 66 65 64 65 66 67 68 68 68 68
47 48 49 49 49 50 50 49 49 50 51 53 53 52 51 53 53 53 48 51 51 48 48 47 47 50 49 53 57 56 58 56 59 65 65 63 63 64 65 65 65 66 66
48 49 49 48 48 49 49 48 47 48 48 50 51 52 52 56 52 50 50 51 53 50 47 43 46 47 48 50 52 54 57 60 55 61 65 64 63 63 63 64 63 64 64
48 48 48 47 47 48 48 48 47 47 48 49 51 51 52 53 51 51 45 46 47 52 48 43 44 46 47 48 49 54 53 52 58 58 64 64 63 62 62 62 62 61 61
47 48 49 48 47 48 48 47 47 46 46 48 50 51 51 51 50 49 47 45 47 46 43 43 43 44 45 46 47 49 51 52 51 58 62 63 63 62 62 62 61 60 59
49 49 48 47 47 47 48 47 46 46 45 46 48 50 49 51 54 54 52 48 47 44 43 42 42 43 43 45 44 46 47 51 52 51 54 57 59 59 59 62 60 59 58
47 46 46 46 45 46 48 48 48 45 45 44 43 45 48 51 51 54 54 55 50 44 45 43 42 42 42 43 44 45 47 48 47 52 51 53 56 54 56 57 60 59 58
45 44 44 44 43 44 48 49 48 46 45 44 44 44 46 50 49 50 52 55 54 51 52 45 45 43 42 44 44 44 47 48 49 51 55 50 50 52 53 56 57 58 58
42 41 42 43 43 44 47 47 49 46 45 45 44 45 44 46 47 46 45 44 45 46 47 49 48 47 46 47 47 48 47 47 51 53 55 49 48 49 50 52 56 57 57
41 41 42 42 42 43 46 47 47 44 42 43 44 46 46 46 48 51 46 42 42 45 53 52 54 55 57 55 51 47 45 47 44 49 52 50 47 50 49 48 50 56 56
41 42 41 42 43 42 46 47 47 43 40 41 43 44 49 47 50 52 45 42 40 43 44 47 47 51 55 53 57 48 47 46 43 43 51 51 48 49 47 49 49 51 54

GFSMA_sfc_temp_054.txt.gz
Temp
61 63 63 65 66 68 68 67 66 64 62 63 63 63 63 62 63 64 63 72 76 77 79 78 78 77 76 77 76 76 76 77 78 78 77 76 76 76 75 75 75 74 74
55 54 56 57 58 60 66 67 67 67 66 65 64 63 62 62 62 63 63 64 73 76 78 79 78 77 77 76 76 76 75 76 77 77 77 77 76 76 75 75 75 74 74
55 54 53 53 54 54 59 60 60 63 63 66 65 66 66 63 62 62 62 63 68 73 75 77 78 77 77 77 76 75 75 75 76 76 76 76 76 76 75 75 75 74 74
58 55 54 54 53 52 53 55 57 57 57 57 60 65 64 64 66 66 63 62 63 67 71 74 76 77 77 77 76 76 75 75 75 75 75 76 75 75 75 75 75 75 75
58 55 54 53 54 53 51 52 55 55 55 55 57 58 58 60 63 68 67 66 63 64 65 70 73 74 76 76 77 76 75 75 74 74 74 75 75 75 75 74 75 75 75
57 54 53 53 53 52 52 51 50 51 53 53 60 59 54 56 59 62 63 67 65 65 64 62 67 69 74 76 76 76 76 75 74 74 74 74 74 75 75 75 75 75 74
57 55 53 53 52 51 51 51 50 50 50 52 51 51 52 54 54 57 61 60 64 65 62 63 64 63 68 73 74 76 77 76 75 74 73 74 74 73 74 74 73 73 73
56 57 54 52 52 50 51 51 49 48 48 49 48 47 45 51 51 54 54 57 58 60 61 65 61 62 61 65 67 72 73 76 75 74 74 73 74 73 73 73 73 73 74
54 54 53 52 51 49 48 49 48 47 48 47 48 48 43 42 45 51 53 53 54 56 56 58 61 61 63 62 65 67 68 71 74 74 74 73 73 73 73 73 73 72 73
52 53 53 52 50 49 48 48 54 48 45 45 46 51 48 48 45 46 48 51 53 56 55 58 56 60 59 62 64 65 67 69 70 73 74 73 73 73 72 72 72 72 72
51 52 52 51 50 49 48 48 48 47 46 45 44 46 44 45 45 44 45 45 49 52 54 54 57 55 60 58 60 63 66 68 68 70 72 73 73 72 72 72 71 71 71
47 49 51 49 49 47 47 48 49 46 47 45 45 45 47 46 43 43 42 44 45 50 50 54 57 55 54 55 61 63 65 66 68 69 70 71 72 72 72 72 71 71 70
45 47 48 48 47 48 48 47 46 46 46 47 48 48 47 48 47 45 44 47 42 45 48 49 53 57 59 54 56 63 64 65 67 68 68 69 70 71 71 72 71 71 71
45 47 47 48 48 50 49 48 47 47 47 48 47 48 49 50 49 52 48 45 43 41 43 47 49 52 55 54 58 62 61 65 65 64 67 68 68 69 70 71 71 70 70
49 51 48 46 46 47 47 47 47 47 46 46 48 47 48 51 48 49 50 48 47 43 45 44 45 49 53 57 58 57 58 63 66 64 65 66 67 68 69 70 70 70 70
45 45 45 46 46 47 48 48 47 48 46 47 49 49 49 49 48 48 48 50 49 47 44 46 46 47 50 58 59 61 58 62 64 65 64 64 65 67 68 68 68 68 68
44 46 47 47 47 47 47 46 46 46 46 46 47 47 48 49 47 50 48 50 49 47 45 47 46 47 46 49 54 56 57 56 57 61 62 62 64 65 66 66 66 67 67
46 46 46 46 46 47 47 45 45 46 45 44 45 46 46 51 50 50 49 48 49 47 46 44 44 45 45 48 50 50 56 59 54 61 60 59 60 63 63 64 64 64 64
45 46 46 46 46 46 46 46 46 45 45 45 45 45 45 47 47 50 48 47 47 50 46 45 44 46 45 46 47 49 50 54 57 59 60 59 58 61 62 62 62 61 61
44 45 46 48 48 46 46 46 45 45 44 46 47 45 45 46 47 47 48 46 46 44 45 46 44 46 45 46 45 46 45 47 51 57 58 58 59 60 62 62 62 60 59
47 47 47 47 47 47 48 46 45 44 45 43 46 46 47 48 52 51 47 46 45 42 41 44 44 45 42 42 43 46 45 46 48 51 52 53 55 55 59 62 61 59 59
46 46 45 45 44 46 48 49 48 45 45 44 41 45 46 48 49 52 53 54 49 45 43 41 42 44 42 42 43 44 45 42 43 51 50 50 54 53 56 58 60 60 59
45 44 44 43 42 43 48 49 49 46 44 44 44 42 44 45 47 47 49 52 50 51 50 44 42 42 42 43 43 42 44 43 44 49 52 48 51 51 54 57 58 58 58
43 42 42 43 42 44 47 48 49 46 44 44 43 42 43 44 44 45 45 44 45 46 46 48 46 45 45 46 47 46 45 45 46 51 53 47 47 49 50 53 57 57 57
41 42 43 42 41 40 45 46 47 44 43 42 43 43 42 42 47 50 46 43 43 43 52 53 52 53 55 55 50 46 43 42 41 45 49 47 45 46 47 49 53 56 56
42 42 41 42 43 42 44 46 46 44 42 40 41 42 48 46 49 50 46 43 40 40 43 46 48 51 53 52 55 48 46 42 41 41 47 50 45 46 44 48 51 54 55

GFSMA_sfc_temp_057.txt.gz
Temp
55 54 55 57 62 63 64 65 67 67 67 66 64 61 60 60 61 61 60 69 73 76 78 80 79 78 77 77 77 77 76 77 78 78 77 76 76 76 75 75 74 74 74
53 52 53 53 52 52 56 58 58 60 62 64 66 67 66 63 61 60 60 61 71 74 77 79 79 78 78 77 77 76 76 76 77 77 76 77 76 76 75 75 74 74 74
53 51 51 51 52 51 53 54 55 56 56 59 57 60 63 65 63 64 64 59 62 70 73 76 78 78 78 78 77 76 76 75 75 76 76 76 76 75 75 75 75 74 74
55 53 52 52 50 50 50 50 51 53 53 53 52 55 56 59 61 65 62 61 61 66 69 73 76 78 78 77 77 77 76 75 75 76 76 75 75 75 75 74 75 74 74
56 52 51 50 51 50 50 49 50 49 50 51 54 55 54 54 55 63 59 61 61 62 65 69 73 74 76 78 77 77 76 75 75 75 75 74 75 75 74 74 74 75 75
55 52 51 51 50 49 49 48 47 48 49 50 57 57 51 52 53 53 55 61 59 61 61 62 65 69 73 76 77 77 77 76 75 75 75 74 74 75 75 74 74 75 75
54 52 51 50 50 48 48 48 47 47 47 49 47 48 49 52 50 51 52 53 56 60 59 61 63 65 67 72 74 76 77 77 76 75 75 75 75 74 75 75 74 74 74
53 54 50 49 49 47 48 47 46 44 45 47 45 44 44 50 49 52 50 54 53 55 58 62 59 60 61 67 70 72 74 77 77 76 75 75 75 75 74 74 74 75 74
51 51 50 49 48 47 46 45 45 44 43 44 45 45 40 40 43 49 51 52 51 51 53 58 62 58 60 58 63 67 69 72 75 77 76 75 75 75 75 74 73 74 74
50 51 50 49 47 46 45 45 51 45 42 41 43 48 45 44 43 45 46 48 51 52 51 52 59 60 58 55 61 64 67 69 71 73 75 75 75 74 74 73 73 73 73
48 49 49 48 47 46 45 45 45 44 43 41 41 42 41 41 42 42 43 43 46 48 50 51 52 57 60 59 55 60 65 67 69 70 72 74 75 74 74 74 73 72 72
45 47 49 47 46 45 45 45 45 43 43 42 41 41 43 41 41 40 40 43 43 46 49 49 50 52 53 57 60 63 64 66 67 69 70 71 73 74 73 73 73 72 72
43 44 45 45 45 45 45 45 43 43 43 41 42 43 42 44 46 44 44 45 40 43 44 47 49 51 56 52 53 61 63 65 66 67 68 69 70 71 72 73 72 72 72
42 44 45 45 45 45 45 44 42 42 42 43 42 42 45 45 45 46 45 45 43 39 41 43 46 48 51 54 55 61 59 64 65 66 67 68 68 69 70 71 71 71 71
47 48 45 44 44 45 47 47 45 45 46 46 45 45 43 46 46 47 47 47 45 41 43 41 43 47 50 52 56 56 55 61 65 65 65 65 67 68 69 70 70 70 70
42 43 44 45 45 46 46 45 44 45 44 44 46 45 44 45 46 46 46 47 46 44 41 45 43 46 48 56 55 56 55 60 63 65 63 62 63 64 68 68 68 68 68
44 45 45 45 45 45 45 44 44 44 43 44 44 44 44 45 44 45 44 45 46 45 42 47 47 48 45 47 51 52 55 54 58 64 64 63 63 63 63 66 66 66 67
44 44 45 44 44 45 45 45 44 45 43 43 43 44 43 47 44 45 45 45 44 44 42 42 43 43 43 45 48 48 54 58 56 62 64 62 61 61 62 63 64 65 65
44 44 44 43 44 45 47 47 46 45 44 44 44 43 44 46 44 43 43 44 46 48 44 42 43 44 46 44 45 47 48 49 56 59 63 61 60 59 60 61 62 62 61
43 43 44 46 47 47 47 47 46 45 45 46 45 45 45 46 44 43 42 42 44 42 43 42 43 44 41 43 47 44 47 45 48 57 60 60 60 59 59 61 62 60 60
43 44 46 46 46 46 47 46 46 45 45 44 45 46 46 47 50 48 44 42 43 43 42 42 42 43 41 42 44 43 45 44 45 51 54 55 55 56 56 58 60 60 58
46 45 45 45 44 46 48 49 47 45 45 44 43 45 46 47 46 51 52 52 48 42 41 42 42 41 41 42 45 43 43 45 43 47 51 51 55 53 54 55 59 59 58
44 44 44 43 42 43 47 49 49 45 44 44 44 43 42 46 46 45 47 50 51 53 51 44 42 42 42 45 46 45 43 44 43 46 49 47 51 51 53 55 57 58 58
42 42 42 43 43 44 47 48 49 46 44 44 45 43 42 42 43 43 42 43 42 43 46 45 45 46 47 48 48 48 45 45 46 47 48 46 49 49 52 53 56 57 58
42 42 42 42 41 42 46 48 48 45 43 43 44 44 41 41 45 49 45 42 42 44 50 50 47 50 53 52 49 45 42 43 40 42 46 47 47 46 49 50 51 55 56
41 41 40 41 42 42 45 48 48 45 42 42 43 42 47 45 47 49 44 43 41 42 43 46 46 48 52 51 54 47 46 43 40 41 46 46 45 46 44 47 49 50 53

GFSMA_sfc_temp_060.txt.gz
Temp
52 51 50 51 52 54 55 56 57 59 59 63 65 66 65 61 60 60 59 67 71 74 76 78 79 79 78 77 77 77 77 77 76 77 77 76 76 76 75 75 74 74 74
51 51 51 51 49 48 51 52 52 54 55 55 58 59 59 61 63 63 61 59 68 71 74 77 79 79 78 78 77 77 77 76 76 76 77 77 76 76 75 75 74 74 74
51 49 49 49 49 48 50 51 51 52 52 54 52 55 57 58 59 60 60 60 61 67 70 73 76 78 79 78 78 77 76 76 76 76 75 76 76 75 75 75 75 74 74
53 50 50 49 49 48 47 47 48 49 50 50 49 51 52 54 55 56 59 59 59 62 65 69 73 76 78 79 78 77 77 76 76 75 75 75 75 75 75 75 75 74 74
54 50 49 49 49 48 47 47 47 46 47 48 51 53 52 51 52 59 54 56 57 59 60 65 70 71 74 78 78 78 77 76 76 75 75 76 74 75 74 74 74 75 75
53 50 49 49 48 47 46 46 45 46 47 46 54 54 49 50 51 50 51 56 54 57 57 59 60 63 70 73 77 78 78 77 76 75 75 75 74 74 75 75 74 74 75
52 50 48 48 47 47 46 45 44 44 44 45 44 49 46 50 48 50 49 52 54 56 56 58 59 60 63 69 72 76 78 78 77 76 75 75 75 75 74 75 74 74 74
51 52 48 48 47 45 45 45 43 42 42 44 42 41 40 48 47 50 49 52 52 53 55 57 57 62 60 60 65 69 72 76 78 77 76 75 75 75 75 74 74 74 74
50 49 48 47 46 44 44 43 42 42 40 41 42 42 38 37 41 50 48 51 51 49 51 53 55 57 59 60 62 63 66 70 75 77 77 76 75 75 76 75 74 74 74
48 48 48 47 45 44 43 43 48 43 40 39 40 45 42 41 38 40 44 46 50 52 50 50 53 55 56 57 60 63 64 67 69 73 76 77 76 76 76 76 75 73 74
47 48 47 46 45 44 43 43 43 42 40 39 39 39 38 39 39 39 41 46 44 47 49 49 50 51 54 55 56 60 63 65 67 69 72 75 76 76 76 75 75 73 72
44 45 46 44 44 43 43 44 43 41 41 40 39 39 40 38 37 37 36 41 41 46 47 50 49 50 51 53 58 63 64 65 65 67 68 71 73 74 75 75 75 75 73
42 43 43 43 44 43 43 43 41 40 40 40 39 41 41 42 43 40 41 41 39 42 43 46 50 51 53 51 53 60 62 64 65 66 67 69 71 72 72 74 74 73 74
41 43 44 43 43 44 44 44 42 43 42 41 40 41 43 45 43 44 43 40 38 39 39 44 45 47 49 50 54 61 59 62 64 65 65 67 68 70 71 72 72 72 73
45 46 43 43 45 45 44 43 43 43 43 43 42 41 41 43 44 43 43 43 40 35 38 45 40 45 48 49 53 54 55 60 63 64 64 65 67 68 70 70 71 70 70
41 42 42 43 43 43 43 42 42 43 42 42 43 42 41 42 42 42 42 43 43 40 37 45 43 44 46 53 53 56 54 59 61 63 63 63 65 67 68 69 68 68 69
41 42 43 43 43 43 43 42 42 43 42 42 42 42 42 43 42 42 40 42 42 42 38 43 44 45 44 45 50 51 53 53 54 62 64 63 63 65 66 66 67 66 67
43 42 43 42 43 43 43 42 42 46 45 45 43 42 42 45 42 42 41 40 41 41 40 39 43 41 42 44 47 47 53 57 53 59 63 64 62 62 62 62 62 64 65
41 42 42 41 42 42 43 45 47 46 46 46 46 44 44 44 42 42 42 43 41 44 41 39 40 40 42 42 45 46 47 48 53 58 61 63 62 62 62 61 61 61 61
41 41 41 42 43 45 46 46 46 46 46 46 46 46 45 45 44 43 44 41 41 38 39 39 40 40 41 43 44 45 45 45 48 55 58 60 62 61 61 62 61 60 59
41 42 43 46 46 46 47 46 46 45 44 44 44 46 46 47 49 48 45 43 41 38 38 38 39 40 41 42 42 45 45 45 45 50 52 54 57 57 58 61 60 59 58
41 45 45 45 44 46 48 49 48 45 45 44 42 43 45 47 48 51 52 51 46 39 37 37 39 39 40 43 45 44 44 45 44 50 49 52 55 54 56 56 59 59 58
42 43 43 43 42 43 47 49 50 47 46 45 44 43 44 46 46 46 46 50 51 52 51 43 39 40 41 44 45 44 43 44 43 46 52 50 53 52 55 56 58 58 59
42 42 42 43 42 43 47 48 49 47 46 46 46 44 43 44 44 43 42 41 41 41 42 44 43 42 44 46 47 47 46 46 47 49 48 47 50 51 53 54 57 57 57
42 41 42 41 40 41 46 49 49 45 45 44 46 45 44 43 46 48 43 40 40 40 47 51 52 50 50 51 50 46 44 43 42 45 47 48 48 48 51 52 54 55 55
41 40 40 41 42 42 46 48 49 46 43 44 45 44 47 45 46 47 43 40 39 39 42 44 45 49 50 48 53 49 47 44 41 43 47 45 47 47 45 48 51 52 53